Biloxi, MS

2:39 PM CST on February 20, 2017 (GMT -0600)
Keesler Air Force Base

Weather History for KBIX - November, 2011

Change the Weather History Date:

Friday, November 4, 2011

  Actual Average Record
Temperature  
Mean Temperature 53 °F -  
Max Temperature 62 °F 72 °F 87 °F (2016)
Min Temperature 44 °F 52 °F 28 °F (1991)
Degree Days  
Heating Degree Days 12    
Growing Degree Days 3 (Base 50)    
Moisture  
Dew Point 44 °F    
Average Humidity 73    
Maximum Humidity 92    
Minimum Humidity 54    
Precipitation  
Precipitation 0.00 in - - ()
Sea Level Pressure  
Sea Level Pressure 30.11 in    
Wind  
Wind Speed 7 mph (NNW)    
Max Wind Speed 15 mph    
Max Gust Speed 21 mph    
Visibility 10 miles    
Events      
Averages and records for this station are not official NWS values.
T = Trace of Precipitation, MM = Missing Value Source: NWS Daily Summary

Daily Weather History Graph

Daily Weather History Graph

Search for Another Location

Airport or City:

Trip Planner

Search our weather history database for the weather conditions in past years. The results will help you decide how hot, cold, wet, or windy it might be!

Date:

Astronomy

Nov. 04, 2011 Rise Set
Actual Time 7:12 AM CDT 6:05 PM CDT
Civil Twilight 6:47 AM CDT 6:30 PM CDT
Nautical Twilight 6:18 AM CDT 6:59 PM CDT
Astronomical Twilight 5:50 AM CDT 7:27 PM CDT
Moon 2:36 PM CDT (11/4) 1:47 AM CDT (11/4)
Length of Visible Light 11h 43m
Length of Day
10h 53m
Waxing Gibbous, 69% of the Moon is Illuminated
Nov 4
Waxing Gibbous
Nov 10
Full
Nov 18
Last Quarter
Nov 25
New
Dec 2
First Quarter

Hourly Weather History & Observations

Time (CDT) Temp. Windchill Dew Point Humidity Pressure Visibility Wind Dir Wind Speed Gust Speed Precip Events Conditions
12:55 AM 49.6 °F - 41.5 °F 74% 30.10 in 10.0 mi NW 4.6 mph - N/A   Clear
1:55 AM 48.7 °F - 42.1 °F 78% 30.10 in 10.0 mi West 3.5 mph - N/A   Clear
2:55 AM 45.5 °F 42.5 °F 41.2 °F 85% 30.10 in 10.0 mi West 5.8 mph - N/A   Clear
3:55 AM 48.2 °F - 42.3 °F 80% 30.09 in 10.0 mi WNW 4.6 mph - N/A   Clear
4:55 AM 46.4 °F 42.4 °F 41.5 °F 83% 30.10 in 10.0 mi NW 8.1 mph - N/A   Clear
5:55 AM 45.9 °F 42.9 °F 40.8 °F 83% 30.11 in 10.0 mi NW 5.8 mph - N/A   Clear
6:55 AM 44.8 °F 41.6 °F 40.3 °F 84% 30.12 in 10.0 mi NW 5.8 mph - N/A   Clear
7:55 AM 45.3 °F - 40.6 °F 84% 30.13 in 10.0 mi Calm Calm - N/A   Clear
8:55 AM 47.5 °F - 41.0 °F 78% 30.14 in 10.0 mi Variable 3.5 mph - N/A   Clear
9:55 AM 52.2 °F - 42.4 °F 69% 30.14 in 10.0 mi North 5.8 mph - N/A   Clear
11:55 AM 57.7 °F - 44.8 °F 62% 30.14 in 10.0 mi North 9.2 mph - N/A   Overcast
12:55 PM 58.3 °F - 44.2 °F 60% 30.11 in 10.0 mi North 15.0 mph 19.6 mph N/A   Scattered Clouds
1:00 PM 59.0 °F - 44.6 °F 59% 30.11 in 10.0 mi North 12.7 mph - N/A   Mostly Cloudy
1:03 PM 59.0 °F - 44.6 °F 59% 30.10 in 10.0 mi North 13.8 mph - N/A   Scattered Clouds
1:55 PM 61.2 °F - 45.0 °F 55% 30.07 in 10.0 mi North 10.4 mph - N/A   Clear
2:55 PM 61.9 °F - 45.1 °F 54% 30.05 in 10.0 mi NNE 13.8 mph - N/A   Clear
3:55 PM 62.1 °F - 46.2 °F 56% 30.06 in 10.0 mi North 13.8 mph 20.7 mph N/A   Clear
4:55 PM 60.4 °F - 46.4 °F 60% 30.07 in 10.0 mi NNE 11.5 mph - N/A   Clear
5:55 PM 58.5 °F - 46.9 °F 66% 30.09 in 10.0 mi North 9.2 mph - N/A   Clear
6:55 PM 56.5 °F - 47.7 °F 72% 30.10 in 10.0 mi NNW 5.8 mph - N/A   Clear
7:55 PM 54.5 °F - 48.2 °F 79% 30.12 in 10.0 mi NNW 5.8 mph - N/A   Clear
8:55 PM 53.4 °F - 48.2 °F 82% 30.13 in 10.0 mi NNW 6.9 mph - N/A   Clear
9:55 PM 52.2 °F - 47.8 °F 85% 30.14 in 10.0 mi NNW 6.9 mph - N/A   Clear
10:55 PM 51.4 °F - 47.5 °F 86% 30.14 in 10.0 mi NW 5.8 mph - N/A   Clear
11:55 PM 49.8 °F - 47.7 °F 92% 30.15 in 10.0 mi NNW 4.6 mph - N/A   Clear